Tracking 29892 objects as of 21-Nov-2024
HD Live streaming from Space Station
objects crossing your sky now

CZ-3C DEB

Track CZ-3C DEB now!


NORAD ID: 39349
Int'l Code: 2010-057P
Perigee: 593.1 km
Apogee: 35,162.5 km
Inclination: 20.1 °
Period: 626.3 minutes
Semi major axis: 24248 km
RCS: 0.3306 m2 (medium)
Launch date: October 31, 2010
Source: People's Republic of China (PRC)
Launch site: Xichang Space Center, China (XSC)

Note: This is SATELLITE DEBRIS
Your satellite tracking list
Your tracking list is empty




NASA's NSSDC Master Catalog

Two Line Element Set (TLE):
1 39349U 10057P   24325.40106962  .00000165  00000-0  33782-2 0  9992
2 39349  20.1168 199.7569 7128051 332.3599 213.4719  2.29914969 84552
Source of the keplerian elements: AFSPC